Location: Bussy-Saint-Georges
(48.8410°N, 2.7017°E)
Time: 22:42:07
(UTC+00:00)

Cosmos 1626 Rocket - Pass Details

Date: 18 October 2021
Orbit: 603 x 630 km, 82.5° (Epoch: 07 December)

Event Time Altitude Azimuth Distance (km) Brightness Sun altitude
Rises 18:16:38 0° 355° (N) 2,878 7.1 -14.4°
Reaches altitude 10° 18:18:58 10° 3° (N) 1,966 6.1 -14.8°
Maximum altitude 18:23:06 41° 75° (ENE) 877 3.9 -15.5°
Enters shadow 18:25:52 19° 138° (SE) 1,469 5.1 -15.9°
